FW6402 Weather Reports


Display with metric or nautical units.
time (UTC)temp
F
wind
direction
speed
MPH
gust
MPH
rain 1hr
in
rain 24hr
in
rain mn
in
humidity
%
barometer
mb
20260510194349 64 144 0.0 2.0 0.00 0.00 0.00 70 1021.7
20260510193845 63 223 0.0 3.0 0.00 0.00 0.00 70 1021.7
20260510193343 62 143 0.0 3.0 0.00 0.00 0.00 72 1021.7
20260510192839 62 117 1.0 4.0 0.00 0.00 0.00 72 1021.6
20260510192349 62 105 1.0 4.0 0.00 0.00 0.00 72 1021.7
20260510191857 63 70 1.0 2.0 0.00 0.00 0.00 71 1021.7
20260510191333 63 176 0.0 2.0 0.00 0.00 0.00 71 1021.8
20260510190831 63 150 0.0 2.0 0.00 0.00 0.00 72 1021.9
20260510190349 62 98 0.0 2.0 0.00 0.00 0.00 71 1021.8
20260510185846 63 35 0.0 2.0 0.00 0.00 0.00 71 1021.6
20260510185408 63 120 1.0 3.0 0.00 0.00 0.00 70 1021.6
20260510184904 63 158 1.0 3.0 0.00 0.00 0.00 70 1021.5
20260510184410 62 172 1.0 3.0 0.00 0.00 0.00 71 1021.5
20260510183907 62 196 0.0 4.0 0.00 0.00 0.00 73 1021.6
20260510183413 61 59 1.0 5.0 0.00 0.00 0.00 74 1021.6
20260510182850 62 70 1.0 5.0 0.00 0.00 0.00 74 1021.4
20260510182407 61 49 2.0 4.0 0.00 0.00 0.00 74 1021.5
20260510181910 61 60 0.0 2.0 0.00 0.00 0.00 74 1021.5
20260510181406 61 199 0.0 2.0 0.00 0.00 0.00 76 1021.5
20260510180845 61 253 0.0 3.0 0.00 0.00 0.00 76 1021.5
20260510180342 60 254 1.0 4.0 0.00 0.00 0.00 75 1021.6
20260510175839 60 32 0.0 3.0 0.00 0.00 0.00 76 1021.6
20260510175331 60 222 1.0 3.0 0.00 0.00 0.00 75 1021.5
20260510174857 60 75 1.0 3.0 0.00 0.00 0.00 75 1021.5
20260510174353 60 8 0.0 4.0 0.00 0.00 0.00 76 1021.5
20260510173850 60 257 1.0 4.0 0.00 0.00 0.00 75 1021.5
20260510173348 60 271 0.0 3.0 0.00 0.00 0.00 75 1021.3
20260510172901 60 86 1.0 3.0 0.00 0.00 0.00 74 1021.4
20260510172344 60 247 0.0 3.0 0.00 0.00 0.00 75 1021.2
20260510171842 60 210 1.0 3.0 0.00 0.00 0.00 75 1021.2
20260510171348 60 262 0.0 2.0 0.00 0.00 0.00 75 1021.0
20260510170906 60 281 1.0 2.0 0.00 0.00 0.00 73 1020.9
20260510170344 60 230 1.0 4.0 0.00 0.00 0.00 73 1020.9
20260510165903 60 242 0.0 4.0 0.00 0.00 0.00 73 1020.8
20260510165400 60 200 1.0 3.0 0.00 0.00 0.00 72 1020.8
20260510164833 60 83 1.0 3.0 0.00 0.00 0.00 72 1020.9
20260510164346 61 239 0.0 1.0 0.00 0.00 0.00 71 1020.9
20260510163911 61 174 0.0 1.0 0.00 0.00 0.00 72 1020.9
20260510163347 60 231 0.0 5.0 0.00 0.00 0.00 73 1020.8
20260510162904 59 210 0.0 5.0 0.00 0.00 0.00 73 1020.9
20260510162346 60 238 1.0 2.0 0.00 0.00 0.00 72 1020.9
20260510161844 60 269 0.0 3.0 0.00 0.00 0.00 73 1020.7
20260510161341 60 85 0.0 3.0 0.00 0.00 0.00 74 1020.8
20260510160832 59 304 0.0 4.0 0.00 0.00 0.00 74 1020.8
20260510160355 59 233 0.0 4.0 0.00 0.00 0.00 76 1020.8
20260510155831 58 287 1.0 2.0 0.00 0.00 0.00 77 1020.8
20260510155357 57 25 0.0 2.0 0.00 0.00 0.00 79 1020.7
20260510154852 57 272 1.0 4.0 0.00 0.00 0.00 79 1020.7
20260510154348 57 59 1.0 4.0 0.00 0.00 0.00 79 1020.8
20260510153906 56 154 0.0 3.0 0.00 0.00 0.00 79 1020.7
20260510153342 56 352 0.0 3.0 0.00 0.00 0.00 79 1020.6
20260510152909 56 39 1.0 3.0 0.00 0.00 0.00 79 1020.6
20260510152341 56 193 0.0 3.0 0.00 0.00 0.00 81 1020.6
20260510151838 56 90 0.0 4.0 0.00 0.00 0.00 81 1020.5
20260510151357 56 56 1.0 4.0 0.00 0.00 0.00 81 1020.4
20260510150852 56 252 1.0 4.0 0.00 0.00 0.00 81 1020.6
20260510150348 55 274 0.0 3.0 0.00 0.00 0.00 83 1020.6
20260510145844 55 281 1.0 5.0 0.00 0.00 0.00 83 1020.4
20260510145343 55 79 0.0 5.0 0.00 0.00 0.00 84 1020.3
20260510144910 55 233 0.0 2.0 0.00 0.00 0.00 84 1020.4
20260510144405 54 76 0.0 2.0 0.00 0.00 0.00 85 1020.3
20260510143856 54 89 0.0 1.0 0.00 0.00 0.00 87 1020.4
20260510143352 54 89 0.0 2.0 0.00 0.00 0.00 86 1020.2
20260510142847 54 103 0.0 2.0 0.00 0.00 0.00 86 1020.0
20260510142343 54 289 0.0 1.0 0.00 0.00 0.00 86 1020.1
20260510141840 54 287 0.0 2.0 0.00 0.00 0.00 86 1019.9
20260510141339 53 73 0.0 2.0 0.00 0.00 0.00 87 1019.9
20260510140859 53 102 0.0 2.0 0.00 0.00 0.00 88 1020.0
20260510140355 52 269 0.0 0.0 0.00 0.00 0.00 89 1020.0
20260510135851 52 77 0.0 1.0 0.00 0.00 0.00 89 1020.0
20260510135348 52 9 0.0 1.0 0.00 0.00 0.00 90 1019.8
20260510134840 52 259 0.0 1.0 0.00 0.00 0.00 90 1019.7
20260510134339 51 245 0.0 2.0 0.00 0.00 0.00 90 1019.7
20260510133836 51 245 0.0 2.0 0.00 0.00 0.00 90 1019.7
20260510133357 51 132 0.0 1.0 0.00 0.00 0.00 91 1019.6
20260510132856 51 125 0.0 0.0 0.00 0.00 0.00 90 1019.5
20260510132351 51 125 0.0 0.0 0.00 0.00 0.00 90 1019.5
20260510131848 51 125 0.0 0.0 0.00 0.00 0.00 90 1019.6
20260510131346 51 125 0.0 0.0 0.00 0.00 0.00 90 1019.6
20260510130844 51 124 0.0 0.0 0.00 0.00 0.00 90 1019.5
20260510130343 51 146 0.0 0.0 0.00 0.00 0.00 90 1019.4
20260510125905 51 238 0.0 0.0 0.00 0.00 0.00 90 1019.7
20260510125340 51 238 0.0 0.0 0.00 0.00 0.00 90 1019.8
20260510124838 51 238 0.0 1.0 0.00 0.00 0.00 90 1020.0
20260510124358 51 249 0.0 1.0 0.00 0.00 0.00 90 1019.9
20260510123833 51 297 0.0 1.0 0.00 0.00 0.00 90 1019.7
20260510123419 51 65 0.0 0.0 0.00 0.00 0.00 90 1019.6
20260510122854 51 65 0.0 0.0 0.00 0.00 0.00 90 1019.6
20260510122332 51 65 0.0 0.0 0.00 0.00 0.00 90 1019.7
20260510121906 51 65 0.0 0.0 0.00 0.00 0.00 90 1019.7
20260510121339 51 65 0.0 0.0 0.00 0.00 0.00 89 1019.7
20260510120905 51 65 0.0 0.0 0.00 0.00 0.00 88 1019.6
20260510120341 52 65 0.0 0.0 0.00 0.00 0.00 88 1019.7
20260510115839 52 65 0.0 0.0 0.00 0.00 0.00 89 1019.6
20260510115359 52 65 0.0 0.0 0.00 0.00 0.00 89 1019.5
20260510114857 52 192 0.0 0.0 0.00 0.00 0.00 89 1019.5
20260510114334 52 193 0.0 1.0 0.00 0.00 0.00 88 1019.4
20260510113831 52 213 0.0 1.0 0.00 0.00 0.00 88 1019.4
20260510113358 52 213 0.0 0.0 0.00 0.00 0.00 88 1019.5
20260510112831 52 213 0.0 0.0 0.00 0.00 0.00 88 1019.7
20260510112349 52 213 0.0 0.0 0.00 0.00 0.00 88 1019.6
20260510111914 52 213 0.0 0.0 0.00 0.00 0.00 88 1019.5
20260510111350 52 213 0.0 1.0 0.00 0.00 0.00 88 1019.2
20260510110848 52 214 0.0 1.0 0.00 0.00 0.00 87 1019.1
20260510110345 52 65 0.0 1.0 0.00 0.00 0.00 87 1019.0
20260510105902 52 66 0.0 1.0 0.00 0.00 0.00 88 1019.1
20260510105339 52 57 0.0 1.0 0.00 0.00 0.00 87 1019.0
20260510104837 53 257 0.0 1.0 0.00 0.00 0.00 87 1018.9
20260510104334 53 257 0.0 1.0 0.00 0.00 0.00 87 1018.8
20260510103846 53 254 0.0 1.0 0.00 0.00 0.00 87 1018.7
20260510103343 53 232 0.0 1.0 0.00 0.00 0.00 87 1018.6
20260510102837 53 228 0.0 0.0 0.00 0.00 0.00 87 1018.6
20260510102336 53 227 0.0 1.0 0.00 0.00 0.00 86 1018.6
20260510101832 53 227 0.0 1.0 0.00 0.00 0.00 86 1018.5
20260510101348 54 231 0.0 1.0 0.00 0.00 0.00 86 1018.4
20260510100845 54 359 0.0 1.0 0.00 0.00 0.00 86 1018.2
20260510100344 54 245 0.0 0.0 0.00 0.00 0.00 86 1018.1
20260510095842 54 245 0.0 0.0 0.00 0.00 0.00 86 1018.0
20260510095339 54 245 0.0 0.0 0.00 0.00 0.00 86 1017.9
20260510094836 54 245 0.0 0.0 0.00 0.00 0.00 86 1018.1
20260510094419 54 245 0.0 0.0 0.00 0.00 0.00 86 1018.1
20260510093854 54 245 0.0 0.0 0.00 0.00 0.00 85 1018.2
20260510093351 54 245 0.0 0.0 0.00 0.00 0.00 85 1018.2
20260510092849 55 245 0.0 0.0 0.00 0.00 0.00 84 1018.2
20260510092345 55 245 0.0 0.0 0.00 0.00 0.00 84 1018.2
20260510091843 55 245 0.0 2.0 0.00 0.00 0.00 84 1018.2
20260510091341 55 212 1.0 2.0 0.00 0.00 0.00 83 1018.1
20260510090841 56 249 1.0 2.0 0.00 0.00 0.00 82 1018.1
20260510090337 56 257 0.0 1.0 0.00 0.00 0.00 82 1018.0
20260510085853 56 274 0.0 0.0 0.00 0.00 0.00 81 1017.9
20260510085344 56 285 0.0 0.0 0.00 0.00 0.00 81 1017.9
20260510084851 56 285 0.0 0.0 0.00 0.00 0.00 81 1017.7
20260510084349 56 285 0.0 0.0 0.00 0.00 0.00 81 1017.7
20260510083837 56 285 0.0 0.0 0.00 0.00 0.00 80 1017.8
20260510083358 56 285 0.0 0.0 0.00 0.00 0.00 79 1017.7
20260510082853 57 285 0.0 1.0 0.00 0.00 0.00 79 1017.7
20260510082349 57 285 0.0 1.0 0.00 0.00 0.00 79 1017.8
20260510081846 57 111 0.0 0.0 0.00 0.00 0.00 79 1017.7
20260510081411 57 111 0.0 0.0 0.00 0.00 0.00 78 1017.7
20260510080841 58 111 0.0 0.0 0.00 0.00 0.00 77 1017.8
20260510080338 58 111 0.0 0.0 0.00 0.00 0.00 77 1017.8
20260510075858 58 111 0.0 0.0 0.00 0.00 0.00 77 1017.8
20260510075354 58 111 0.0 0.0 0.00 0.00 0.00 77 1017.9
20260510074848 58 111 0.0 0.0 0.00 0.00 0.00 76 1017.9
20260510074406 58 111 0.0 0.0 0.00 0.00 0.00 76 1017.9
20260510073911 59 111 0.0 0.0 0.00 0.00 0.00 76 1017.9
20260510073406 59 149 0.0 0.0 0.00 0.00 0.00 75 1017.9
20260510072843 59 53 0.0 0.0 0.00 0.00 0.00 75 1017.9
20260510072337 59 53 0.0 0.0 0.00 0.00 0.00 75 1017.9
20260510071857 60 52 0.0 0.0 0.00 0.00 0.00 74 1017.8
20260510071355 60 52 0.0 0.0 0.00 0.00 0.00 73 1017.8
20260510070852 60 52 0.0 0.0 0.00 0.00 0.00 73 1017.7
20260510070349 61 52 0.0 0.0 0.00 0.00 0.00 72 1017.7
20260510065846 61 52 0.0 0.0 0.00 0.00 0.00 70 1017.7
20260510065404 62 52 0.0 0.0 0.00 0.00 0.00 69 1017.7
20260510064903 62 52 0.0 1.0 0.00 0.00 0.00 69 1017.7
20260510064340 62 52 0.0 1.0 0.00 0.00 0.00 69 1017.7
20260510063857 62 52 0.0 1.0 0.00 0.00 0.00 68 1017.6
20260510063353 63 280 0.0 0.0 0.00 0.00 0.00 67 1017.6
20260510062849 63 281 0.0 0.0 0.00 0.00 0.00 66 1017.7
20260510062415 64 281 0.0 1.0 0.00 0.00 0.00 66 1017.7
20260510061849 64 280 0.0 1.0 0.00 0.00 0.00 65 1017.7
20260510061345 65 304 0.0 0.0 0.00 0.00 0.00 63 1017.6
20260510060843 65 304 0.0 1.0 0.00 0.00 0.00 62 1017.6
20260510060340 66 246 0.0 3.0 0.00 0.00 0.00 62 1017.5
20260510055840 65 37 0.0 0.0 0.00 0.00 0.00 61 1017.6
20260510055338 66 270 0.0 2.0 0.00 0.00 0.00 62 1017.5
20260510054837 65 254 1.0 2.0 0.00 0.00 0.00 62 1017.5
20260510054357 65 150 0.0 1.0 0.00 0.00 0.00 62 1017.4
20260510053854 65 148 0.0 1.0 0.00 0.00 0.00 63 1017.4
20260510053331 65 149 0.0 1.0 0.00 0.00 0.00 62 1017.3
20260510052849 65 330 0.0 1.0 0.00 0.00 0.00 62 1017.4
20260510052346 66 330 0.0 1.0 0.00 0.00 0.00 62 1017.4
20260510051913 66 330 0.0 1.0 0.00 0.00 0.00 62 1017.4
20260510051349 66 74 0.0 1.0 0.00 0.00 0.00 62 1017.4
20260510050846 66 74 0.0 1.0 0.00 0.00 0.00 62 1017.4
20260510050331 66 72 0.0 1.0 0.00 0.00 0.00 61 1017.4
20260510045845 66 74 0.0 1.0 0.00 0.00 0.00 60 1017.4
20260510045342 66 74 0.0 1.0 0.00 0.00 0.00 59 1017.4
20260510044838 67 69 0.0 1.0 0.00 0.00 0.00 59 1017.3
20260510044357 67 69 0.0 1.0 0.00 0.00 0.00 58 1017.3
20260510043834 67 283 0.0 1.0 0.00 0.00 0.00 58 1017.3
20260510043332 67 284 0.0 1.0 0.00 0.00 0.00 57 1017.2
20260510042857 67 186 0.0 0.0 0.00 0.00 0.00 57 1017.1
20260510042410 68 186 0.0 0.0 0.00 0.00 0.00 56 1017.0
20260510041844 68 186 0.0 1.0 0.00 0.00 0.00 56 1017.0
20260510041400 68 75 0.0 1.0 0.00 0.00 0.00 56 1016.9
20260510040837 68 160 0.0 1.0 0.00 0.00 0.00 55 1016.8
20260510040334 68 160 0.0 1.0 0.00 0.00 0.00 55 1016.8
20260510035857 68 77 0.0 0.0 0.00 0.00 0.00 56 1016.8
20260510035353 69 77 0.0 0.0 0.00 0.00 0.00 55 1016.7
20260510034910 69 77 0.0 0.0 0.00 0.00 0.00 54 1016.6
20260510034415 70 77 0.0 0.0 0.00 0.00 0.00 54 1016.6
20260510033852 70 77 0.0 3.0 0.00 0.00 0.00 53 1016.4
20260510033406 70 250 0.0 3.0 0.00 0.00 0.00 52 1016.5
20260510032910 70 178 0.0 0.0 0.00 0.00 0.00 52 1016.5
20260510032346 71 178 0.0 0.0 0.00 0.00 0.00 51 1016.4
20260510031844 71 176 0.0 2.0 0.00 0.00 0.00 51 1016.4
20260510031342 71 34 0.0 2.0 0.00 0.00 0.00 50 1016.5
20260510030839 72 229 0.0 2.0 0.00 0.00 0.00 49 1016.4
20260510030359 72 266 0.0 3.0 0.00 0.00 0.00 48 1016.3
20260510025852 73 279 1.0 3.0 0.00 0.00 0.00 47 1016.3
20260510025410 73 55 0.0 2.0 0.00 0.00 0.00 45 1016.3
20260510024842 73 268 0.0 3.0 0.00 0.00 0.00 44 1016.2
20260510024340 74 257 1.0 3.0 0.00 0.00 0.00 43 1016.3
20260510023848 74 325 0.0 2.0 0.00 0.00 0.00 42 1016.3
20260510023345 75 286 1.0 2.0 0.00 0.00 0.00 41 1016.2
20260510022841 75 34 0.0 1.0 0.00 0.00 0.00 40 1016.2
20260510022339 75 250 0.0 2.0 0.00 0.00 0.00 39 1016.2
20260510021835 76 248 0.0 2.0 0.00 0.00 0.00 38 1016.3
20260510021333 76 268 0.0 1.0 0.00 0.00 0.00 36 1016.3
20260510020900 76 295 0.0 4.0 0.00 0.00 0.00 35 1016.3
20260510020356 76 11 0.0 4.0 0.00 0.00 0.00 34 1016.3
20260510015851 77 253 0.0 3.0 0.00 0.00 0.00 33 1016.3
20260510015350 77 270 0.0 4.0 0.00 0.00 0.00 32 1016.4
20260510014903 77 46 1.0 4.0 0.00 0.00 0.00 33 1016.4
20260510014339 78 289 2.0 5.0 0.00 0.00 0.00 32 1016.4
20260510013845 78 110 1.0 5.0 0.00 0.00 0.00 32 1016.4
20260510013341 78 24 2.0 4.0 0.00 0.00 0.00 31 1016.4
20260510012841 78 47 1.0 5.0 0.00 0.00 0.00 31 1016.5
20260510012337 78 289 1.0 5.0 0.00 0.00 0.00 34 1016.6
20260510011835 79 76 1.0 3.0 0.00 0.00 0.00 34 1016.6
20260510011400 79 34 0.0 2.0 0.00 0.00 0.00 34 1016.5
20260510010853 79 40 0.0 1.0 0.00 0.00 0.00 34 1016.5
20260510010351 79 309 0.0 3.0 0.00 0.00 0.00 33 1016.5
20260510005849 79 237 1.0 3.0 0.00 0.00 0.00 32 1016.7
20260510005347 80 263 0.0 2.0 0.00 0.00 0.00 34 1016.7
20260510004845 80 283 1.0 3.0 0.00 0.00 0.00 32 1016.7
20260510004404 80 148 1.0 3.0 0.00 0.00 0.00 32 1016.7
20260510003840 80 18 1.0 5.0 0.00 0.00 0.00 33 1016.7
20260510003359 80 51 2.0 5.0 0.00 0.00 0.00 32 1016.7
20260510002855 81 227 1.0 5.0 0.00 0.00 0.00 31 1016.8
20260510002411 81 64 0.0 3.0 0.00 0.00 0.00 32 1016.9
20260510001841 81 243 1.0 4.0 0.00 0.00 0.00 32 1016.8
20260510001338 81 262 1.0 4.0 0.00 0.00 0.00 31 1016.9
20260510000839 82 265 1.0 3.0 0.00 0.00 0.00 32 1017.0
20260510000334 80 221 0.0 5.0 0.00 0.00 0.00 33 1016.9
20260509235832 80 20 3.0 5.0 0.00 0.00 0.00 34 1017.0
20260509235348 80 37 0.0 5.0 0.00 0.00 0.00 34 1017.0
20260509234844 79 261 0.0 7.0 0.00 0.00 0.00 34 1017.1
20260509234405 79 340 3.0 7.0 0.00 0.00 0.00 35 1017.1
20260509233842 79 32 1.0 5.0 0.00 0.00 0.00 36 1017.0
20260509233409 79 19 2.0 7.0 0.00 0.00 0.00 34 1017.2
20260509232841 79 37 4.0 7.0 0.00 0.00 0.00 35 1017.1
20260509232359 79 102 2.0 5.0 0.00 0.00 0.00 33 1017.2
20260509231902 81 41 3.0 5.0 0.00 0.00 0.00 32 1017.2
20260509231337 81 105 3.0 4.0 0.00 0.00 0.00 32 1017.2
20260509230835 81 256 1.0 3.0 0.00 0.00 0.00 32 1017.3
20260509230332 82 255 1.0 3.0 0.00 0.00 0.00 29 1017.4
20260509225848 80 226 0.0 3.0 0.00 0.00 0.00 33 1017.6
20260509225353 80 276 0.0 3.0 0.00 0.00 0.00 36 1017.7
20260509224850 80 263 2.0 4.0 0.00 0.00 0.00 35 1017.8
20260509224343 79 213 2.0 3.0 0.00 0.00 0.00 35 1017.8
20260509223840 79 255 0.0 3.0 0.00 0.00 0.00 35 1017.9
20260509223337 79 333 1.0 4.0 0.00 0.00 0.00 38 1018.1
20260509222841 79 212 1.0 5.0 0.00 0.00 0.00 36 1018.2
20260509222339 79 37 2.0 6.0 0.00 0.00 0.00 38 1018.4
20260509221830 78 249 4.0 6.0 0.00 0.00 0.00 38 1018.4
20260509221356 78 248 1.0 6.0 0.00 0.00 0.00 42 1018.4
20260509220832 78 245 2.0 6.0 0.00 0.00 0.00 41 1018.4
20260509220349 78 238 2.0 5.0 0.00 0.00 0.00 40 1018.5
20260509215849 78 84 0.0 4.0 0.00 0.00 0.00 43 1018.7
20260509215347 78 42 0.0 4.0 0.00 0.00 0.00 44 1018.7
20260509214845 77 286 1.0 7.0 0.00 0.00 0.00 43 1018.8
20260509214402 76 274 5.0 7.0 0.00 0.00 0.00 43 1018.8
20260509213839 76 257 2.0 7.0 0.00 0.00 0.00 44 1018.9
20260509213337 78 255 1.0 4.0 0.00 0.00 0.00 46 1019.0
20260509212854 77 275 1.0 4.0 0.00 0.00 0.00 45 1019.0
20260509212358 76 170 1.0 3.0 0.00 0.00 0.00 46 1019.1
20260509211835 77 278 0.0 3.0 0.00 0.00 0.00 46 1019.0
20260509211332 77 325 1.0 5.0 0.00 0.00 0.00 45 1019.1
20260509210844 76 271 3.0 5.0 0.00 0.00 0.00 46 1019.0
20260509210341 76 276 1.0 5.0 0.00 0.00 0.00 48 1018.9
20260509205846 76 300 2.0 5.0 0.00 0.00 0.00 46 1018.9
20260509205344 77 72 3.0 5.0 0.00 0.00 0.00 45 1019.0
20260509204842 78 84 2.0 4.0 0.00 0.00 0.00 44 1019.1
20260509204340 77 293 1.0 6.0 0.00 0.00 0.00 47 1019.0
20260509203838 76 277 2.0 6.0 0.00 0.00 0.00 47 1019.1
20260509203335 76 43 2.0 5.0 0.00 0.00 0.00 49 1019.2
20260509202832 75 273 1.0 5.0 0.00 0.00 0.00 48 1019.3
20260509202345 76 96 2.0 5.0 0.00 0.00 0.00 47 1019.2
20260509201850 76 261 1.0 5.0 0.00 0.00 0.00 48 1019.3
20260509201348 75 55 1.0 6.0 0.00 0.00 0.00 49 1019.5
20260509200845 74 79 1.0 6.0 0.00 0.00 0.00 50 1019.6
20260509200342 74 270 1.0 7.0 0.00 0.00 0.00 49 1019.6
20260509195832 73 251 1.0 7.0 0.00 0.00 0.00 51 1019.7
20260509195357 73 281 3.0 7.0 0.00 0.00 0.00 50 1019.8
20260509194834 74 283 1.0 6.0 0.00 0.00 0.00 49 1019.9